Starlink 31538

operational
NORAD ID: 59525 Int'l Des: 2024-073 Owner: SPXS Country: US Constellation: starlink
LEOCIRCULAR

关于 Starlink 31538

正在加载描述...

实时位置

正在加载3D地球...

即将过境

高度历史

Altitude vs Time

uPlot chart will show altitude changes over time

两行轨道根数

1 59525U 24073Q 26034.59590671 -.00000855 00000-0 -21561-4 0 9998
2 59525 42.9999 150.3718 0000793 300.3523 59.7250 15.27576296100964
Epoch: Feb 3, 2026 • Age: 21 hours

当前状态

高度 486.4 km
速度 7.63 km/s
星下点 42.17°N, 79.79°W
发射日期 Apr 17, 2024
运行时间 1.7 years
类型 internet

技术详情

分类 Payload
质量 730.00 kg
干质量 700.00 kg
总质量 730.00 kg
长度 0.30 m
直径 4.10 m
跨度 29.00 m
形状 Box + pan
制造商 SPXS
平台类型 Starlink V2M
阶段状态 In Orbit
所有者/国家 SPXS/US

大型星座

Loading constellations...